Date String (YYYY-MM-DD hh:mm:ss) UTC,Instrument flags,absolute air pressure of the measurement (hPa),sample flow rate (lpm),inlet stack bypass flow (lpm),air temperature of the measurement (°C),ambient temperature measured by the external sensor (°C),aerosol sample conditioner tube jacket temperature (°C),OPC LED temperature (°C),internal box temperature (°C),relative humidity of the measurement (%),span deviation,mass concentration of particles derived from Lorenz-Mie calculation of OPC scattering (μg/m³),mass concentration of particles derived from Lorenz-Mie calculation of OPC scattering (μg/m³),mass concentration of particles derived from Lorenz-Mie calculation of OPC scattering (μg/m³)
DateTimeUTC,F1_M11,P_M11,Q1_M11,Q2_M11,T1_M11,T2_M11,T3_M11,T4_M11,T5_M11,U1_M11,ZSPAN_M11,X0_M11,X2_M11,X1_M11
2024-04-23 22:00:00,SystemResetWarning,0830.5,5.00,000.00,025.5,024.8,000.0,033.7,027.4,016.7,0000.0,0020.57,0008.10,0006.75
2024-04-23 22:01:00,SystemResetWarning,0830.5,4.99,000.00,025.5,024.9,000.0,033.8,027.4,016.7,0000.0,0020.49,0008.00,0006.76
2024-04-23 22:02:00,SystemResetWarning,0830.4,5.00,000.00,025.5,025.0,000.0,033.8,027.5,016.9,0000.0,0020.76,0008.04,0006.78
2024-04-23 22:03:00,SystemResetWarning,0830.4,5.00,000.00,025.6,025.0,000.0,033.8,027.5,016.2,0000.0,0019.86,0008.09,0006.80
2024-04-23 22:04:00,SystemResetWarning,0830.6,5.00,000.00,025.7,025.1,000.0,033.8,027.6,016.3,0000.0,0020.29,0008.19,0006.86
2024-04-23 22:05:00,SystemResetWarning,0830.5,5.01,000.00,025.7,025.2,000.0,033.9,027.6,016.3,0000.0,0020.63,0008.26,0006.91
2024-04-23 22:06:00,SystemResetWarning,0830.5,5.00,000.00,025.7,025.2,000.0,033.9,027.7,016.1,0000.0,0020.62,0008.37,0006.98
2024-04-23 22:07:00,SystemResetWarning,0830.6,5.00,000.00,025.8,025.3,000.0,033.9,027.7,016.0,0000.0,0020.20,0008.49,0007.04
2024-04-23 22:08:00,SystemResetWarning,0830.6,5.00,000.00,025.8,025.3,000.0,034.0,027.8,016.1,0000.0,0018.82,0008.56,0007.10
2024-04-23 22:09:00,SystemResetWarning,0830.7,5.00,000.00,025.9,025.4,000.0,034.0,027.8,016.2,0000.0,0018.23,0008.55,0007.14
2024-04-23 22:10:00,SystemResetWarning,0830.8,5.00,000.00,025.9,025.4,000.0,034.1,027.9,016.0,0000.0,0018.67,0008.64,0007.19
2024-04-23 22:11:00,SystemResetWarning,0830.8,5.00,000.00,026.0,025.5,000.0,034.1,027.9,016.1,0000.0,0018.62,0008.65,0007.22
2024-04-23 22:12:00,SystemResetWarning,0830.8,4.98,000.00,025.8,024.0,000.0,034.2,027.0,016.3,0000.0,0018.93,0008.72,0007.24
2024-04-23 22:13:00,SystemResetWarning,0830.9,5.02,000.00,025.4,022.4,000.0,034.2,026.0,017.0,0000.0,0020.22,0008.74,0007.27
2024-04-23 22:14:00,SystemResetWarning,0830.9,5.00,000.00,025.1,022.4,000.0,034.1,025.9,017.5,0000.0,0020.55,0008.74,0007.29
2024-04-23 22:15:00,SystemResetWarning,0830.9,4.99,000.00,025.1,022.7,000.0,033.9,026.2,017.4,0000.0,0020.09,0008.74,0007.29
2024-04-23 22:16:00,SystemResetWarning,0830.9,5.00,000.00,025.1,023.1,000.0,033.9,026.5,017.3,0000.0,0020.17,0008.74,0007.28
2024-04-23 22:17:00,SystemResetWarning,0830.9,5.00,000.00,025.1,023.4,000.0,033.8,026.7,017.3,0000.0,0019.45,0008.69,0007.27
2024-04-23 22:18:00,SystemResetWarning,0830.9,5.00,000.00,025.2,023.7,000.0,033.8,026.9,016.9,0000.0,0019.69,0008.63,0007.24
2024-04-23 22:19:00,SystemResetWarning,0830.9,4.99,000.00,025.2,024.0,000.0,033.7,027.0,016.8,0000.0,0020.48,0008.60,0007.22
2024-04-23 22:20:00,SystemResetWarning,0830.9,4.99,000.00,025.3,024.2,000.0,033.7,027.1,016.9,0000.0,0021.20,0008.61,0007.19
2024-04-23 22:21:00,SystemResetWarning,0830.9,5.01,000.00,025.3,024.4,000.0,033.7,027.2,016.6,0000.0,0020.82,0008.57,0007.17
2024-04-23 22:22:00,SystemResetWarning,0830.9,5.00,000.00,025.4,024.6,000.0,033.7,027.3,016.8,0000.0,0021.28,0008.59,0007.16
2024-04-23 22:23:00,SystemResetWarning,0830.9,5.00,000.00,025.4,024.7,000.0,033.8,027.4,017.2,0000.0,0021.78,0008.67,0007.15
2024-04-23 22:24:00,SystemResetWarning,0830.9,5.00,000.00,025.5,024.9,000.0,033.8,027.4,016.6,0000.0,0020.49,0008.68,0007.15
2024-04-23 22:25:00,SystemResetWarning,0830.9,5.00,000.00,025.6,025.0,000.0,033.8,027.5,016.7,0000.0,0020.16,0008.68,0007.14
2024-04-23 22:26:00,SystemResetWarning,0830.9,5.00,000.00,025.6,025.1,000.0,033.8,027.6,016.3,0000.0,0022.20,0008.69,0007.12
2024-04-23 22:27:00,SystemResetWarning,0831.0,5.00,000.00,025.7,025.2,000.0,033.9,027.6,016.2,0000.0,0022.99,0008.69,0007.11
2024-04-23 22:28:00,SystemResetWarning,0831.0,5.00,000.00,025.7,025.2,000.0,033.9,027.7,016.4,0000.0,0024.03,0008.65,0007.10
2024-04-23 22:29:00,SystemResetWarning,0831.1,5.00,000.00,025.8,025.3,000.0,033.9,027.7,016.3,0000.0,0024.02,0008.64,0007.09
2024-04-23 22:30:00,SystemResetWarning,0831.1,5.00,000.00,025.8,025.3,000.0,034.0,027.8,016.1,0000.0,0023.21,0008.59,0007.06
2024-04-23 22:31:00,SystemResetWarning,0831.1,4.99,000.00,025.9,025.4,000.0,034.0,027.8,016.4,0000.0,0022.75,0008.58,0007.05
2024-04-23 22:32:00,SystemResetWarning,0831.2,5.00,000.00,025.9,025.5,000.0,034.0,027.9,016.9,0000.0,0022.77,0008.55,0007.03
2024-04-23 22:33:00,SystemResetWarning,0831.1,5.00,000.00,026.0,025.4,000.0,034.1,027.8,016.7,0000.0,0023.10,0008.49,0007.00
2024-04-23 22:34:00,SystemResetWarning,0831.0,4.99,000.00,025.8,023.8,000.0,034.2,026.9,016.3,0000.0,0023.85,0008.39,0006.98
2024-04-23 22:35:00,SystemResetWarning,0830.9,5.02,000.00,025.4,022.4,000.0,034.2,026.1,016.7,0000.0,0024.10,0008.33,0006.97
2024-04-23 22:36:00,SystemResetWarning,0830.9,5.02,000.00,025.1,022.5,000.0,034.1,026.0,017.4,0000.0,0024.29,0008.26,0006.96
2024-04-23 22:37:00,SystemResetWarning,0830.8,4.99,000.00,025.1,022.8,000.0,033.9,026.3,017.1,0000.0,0022.70,0008.22,0006.95
2024-04-23 22:38:00,SystemResetWarning,0830.8,4.99,000.00,025.1,023.2,000.0,033.8,026.6,017.1,0000.0,0022.96,0008.19,0006.94
2024-04-23 22:39:00,SystemResetWarning,0830.7,5.00,000.00,025.1,023.5,000.0,033.8,026.8,017.2,0000.0,0023.79,0008.20,0006.91
2024-04-23 22:40:00,SystemResetWarning,0830.6,5.00,000.00,025.2,023.8,000.0,033.8,026.9,017.4,0000.0,0023.03,0008.14,0006.89
2024-04-23 22:41:00,SystemResetWarning,0830.5,5.01,000.00,025.2,024.0,000.0,033.7,027.0,017.1,0000.0,0023.21,0008.12,0006.88
2024-04-23 22:42:00,SystemResetWarning,0830.5,5.00,000.00,025.3,024.2,000.0,033.7,027.1,017.0,0000.0,0023.64,0008.11,0006.87
2024-04-23 22:43:00,SystemResetWarning,0830.3,5.00,000.00,025.3,024.4,000.0,033.7,027.2,017.2,0000.0,0023.28,0008.05,0006.84
2024-04-23 22:44:00,SystemResetWarning,0830.2,4.99,000.00,025.4,024.6,000.0,033.7,027.3,018.0,0000.0,0023.10,0008.05,0006.81
2024-04-23 22:45:00,SystemResetWarning,0830.2,5.00,000.00,025.4,024.7,000.0,033.8,027.3,017.4,0000.0,0021.57,0008.02,0006.78
2024-04-23 22:46:00,SystemResetWarning,0830.3,5.00,000.00,025.5,024.8,000.0,033.8,027.4,018.4,0000.0,0021.59,0008.02,0006.75
2024-04-23 22:47:00,SystemResetWarning,0830.2,5.00,000.00,025.5,024.9,000.0,033.8,027.5,019.5,0000.0,0022.04,0008.01,0006.70
2024-04-23 22:48:00,SystemResetWarning,0830.2,5.01,000.00,025.6,025.0,000.0,033.8,027.5,018.4,0000.0,0022.33,0007.95,0006.64
2024-04-23 22:49:00,SystemResetWarning,0830.3,5.00,000.00,025.6,025.1,000.0,033.8,027.6,017.9,0000.0,0020.96,0007.87,0006.61
2024-04-23 22:50:00,SystemResetWarning,0830.3,5.00,000.00,025.7,025.1,000.0,033.9,027.6,018.8,0000.0,0018.66,0007.80,0006.57
2024-04-23 22:51:00,SystemResetWarning,0830.2,5.00,000.00,025.7,025.1,000.0,033.9,027.6,020.4,0000.0,0019.37,0007.82,0006.53
2024-04-23 22:52:00,SystemResetWarning,0830.3,5.00,000.00,025.7,025.2,000.0,033.9,027.6,020.1,0000.0,0019.40,0007.80,0006.47
2024-04-23 22:53:00,SystemResetWarning,0830.4,5.00,000.00,025.8,025.2,000.0,034.0,027.7,020.6,0000.0,0019.01,0007.70,0006.40
2024-04-23 22:54:00,SystemResetWarning,0830.5,5.00,000.00,025.8,025.3,000.0,034.0,027.7,020.5,0000.0,0019.39,0007.72,0006.36
2024-04-23 22:55:00,SystemResetWarning,0830.5,5.00,000.00,025.9,025.3,000.0,034.0,027.7,019.8,0000.0,0018.61,0007.68,0006.32
2024-04-23 22:56:00,SystemResetWarning,0830.8,4.99,000.00,025.9,025.3,000.0,034.1,027.8,019.7,0000.0,0018.98,0007.65,0006.30
2024-04-23 22:57:00,SystemResetWarning,0830.6,5.00,000.00,025.9,025.4,000.0,034.1,027.8,019.7,0000.0,0018.56,0007.63,0006.27
2024-04-23 22:58:00,SystemResetWarning,0830.6,5.00,000.00,026.0,025.4,000.0,034.1,027.9,020.3,0000.0,0017.77,0007.65,0006.27
2024-04-23 22:59:00,SystemResetWarning,0830.6,5.01,000.00,026.0,025.5,000.0,034.2,027.9,018.4,0000.0,0016.82,0007.67,0006.27
